Weather History for Dayton, OH

Change the Weather History Date:

Saturday, April 6, 2013

  Actual Average Record
Temperature  
Mean Temperature 49 °F 48 °F  
Max Temperature 63 °F 58 °F 83 °F (1929)
Min Temperature 35 °F 38 °F 18 °F (1982)
Degree Days  
Heating Degree Days 16 17  
Month to date heating degree days 148 107  
Since 1 July heating degree days 5110 5146  
Cooling Degree Days 0 0  
Month to date cooling degree days 0 0  
Year to date cooling degree days 0 0  
Moisture  
Dew Point 26 °F    
Average Humidity 44    
Maximum Humidity 59    
Minimum Humidity 29    
Precipitation  
Precipitation T in 0.13 in 1.58 in (1938)
Month to date precipitation T 0.76  
Year to date precipitation 7.55 9.05  
Snow  
Snow 0.00 in 0.10 in 0.30 in (1920)
Month to date snowfall 0.0 0.3  
Since 1 July snowfall 35.9 23.0  
Snow Depth 0.00 in    
Sea Level Pressure  
Sea Level Pressure 30.10 in    
Wind  
Wind Speed 13 mph (SE)    
Max Wind Speed 21 mph    
Max Gust Speed 25 mph    
Visibility 10 miles    
Events      
T = Trace of Precipitation, MM = Missing Value Source: NWS Daily Summary

Daily Weather History Graph

Daily Weather History Graph

Search for Another Location

Airport:

Trip Planner

Search our weather history database for the weather conditions in past years. The results will help you decide how hot, cold, wet, or windy it might be!

Date:

Astronomy

Apr. 06, 2013 Rise Set
Actual Time 7:12 AM EDT 8:06 PM EDT
Civil Twilight 6:45 AM EDT 8:33 PM EDT
Nautical Twilight 6:12 AM EDT 9:06 PM EDT
Astronomical Twilight 5:38 AM EDT 9:40 PM EDT
Moon 4:55 AM EDT (4/6) 4:34 PM EDT (4/6)
Length of Visible Light 13h 48m
Length of Day
12h 53m
Waning Crescent, 15% of the Moon is Illuminated
Apr 6
Waning Crescent
Apr 10
New
Apr 18
First Quarter
Apr 25
Full
May 2
Last Quarter

Hourly Weather History & Observations

Time (EDT) Temp. Windchill Dew Point Humidity Pressure Visibility Wind Dir Wind Speed Gust Speed Precip Events Conditions
12:56 AM 37.9 °F 32.1 °F 25.0 °F 60% 30.17 in 10.0 mi ENE 8.1 mph - N/A   Clear
1:56 AM 39.0 °F 32.3 °F 24.1 °F 55% 30.17 in 10.0 mi East 10.4 mph - N/A   Clear
2:56 AM 37.0 °F 31.0 °F 23.0 °F 57% 30.19 in 10.0 mi East 8.1 mph - N/A   Clear
3:56 AM 37.9 °F 30.0 °F 21.9 °F 53% 30.17 in 10.0 mi ESE 12.7 mph - N/A   Partly Cloudy
4:56 AM 37.0 °F 28.9 °F 21.9 °F 54% 30.18 in 10.0 mi ESE 12.7 mph - N/A   Overcast
5:56 AM 37.0 °F 29.3 °F 23.0 °F 57% 30.20 in 10.0 mi SE 11.5 mph - N/A   Overcast
6:56 AM 35.1 °F 27.9 °F 21.9 °F 59% 30.23 in 10.0 mi ESE 9.2 mph - N/A   Mostly Cloudy
7:56 AM 36.0 °F 28.0 °F 23.0 °F 59% 30.25 in 10.0 mi SE 11.5 mph - N/A   Partly Cloudy
8:56 AM 37.9 °F 29.2 °F 21.0 °F 51% 30.24 in 10.0 mi SE 15.0 mph - N/A   Scattered Clouds
9:56 AM 42.1 °F 34.2 °F 21.0 °F 43% 30.23 in 10.0 mi SE 16.1 mph - N/A   Scattered Clouds
10:56 AM 46.9 °F - 21.9 °F 37% 30.22 in 10.0 mi SSE 16.1 mph 23.0 mph N/A   Mostly Cloudy
11:56 AM 48.9 °F - 23.0 °F 36% 30.18 in 10.0 mi SE 18.4 mph 24.2 mph N/A   Mostly Cloudy
12:56 PM 51.1 °F - 25.0 °F 36% 30.17 in 10.0 mi SSE 12.7 mph - N/A   Mostly Cloudy
1:56 PM 54.0 °F - 26.1 °F 34% 30.14 in 10.0 mi SSE 11.5 mph - 0.00 in   Mostly Cloudy
2:56 PM 57.0 °F - 27.0 °F 32% 30.11 in 10.0 mi SSE 10.4 mph - N/A   Mostly Cloudy
3:56 PM 59.0 °F - 28.0 °F 31% 30.06 in 10.0 mi SSE 15.0 mph 19.6 mph N/A   Mostly Cloudy
4:56 PM 61.0 °F - 28.0 °F 29% 30.01 in 10.0 mi SSE 16.1 mph 21.9 mph N/A   Mostly Cloudy
5:56 PM 61.0 °F - 30.0 °F 31% 29.98 in 10.0 mi SE 15.0 mph - N/A   Overcast
6:56 PM 61.0 °F - 30.9 °F 32% 29.96 in 10.0 mi SSE 16.1 mph - N/A   Overcast
7:56 PM 59.0 °F - 32.0 °F 36% 29.93 in 10.0 mi SSE 12.7 mph - N/A   Overcast
8:56 PM 60.1 °F - 33.1 °F 36% 29.93 in 10.0 mi SSE 11.5 mph - N/A   Overcast
9:56 PM 60.1 °F - 33.1 °F 36% 29.93 in 10.0 mi SSE 13.8 mph - N/A   Mostly Cloudy
10:56 PM 59.0 °F - 34.0 °F 39% 29.91 in 10.0 mi SSE 13.8 mph - N/A   Mostly Cloudy
11:56 PM 62.1 °F - 34.0 °F 35% 29.89 in 10.0 mi South 13.8 mph 21.9 mph N/A   Overcast